map of WVB home
WVB - Airport
Location
City:  Walvis Bay, Erongo, Namibia
Name:Rooikop Airport
ICAO:FYWB
IATA:WVB

Details
Type:Airport (Aerodrome, Airfield)
Use:Public/Civil, International (customs port of entry)
Latitude:2258'48"S (-22.979888)
Longitude:1438'43"E (14.645331)
Datum:other
Elevation:299 ft (91 m)
Variation:12.99W (WMM2015 magnetic declination)
0.12 annual change
Runways:1
Longest:7001 × 98 ft (2134 × 30 m), paved

Time
Time Zone:UTC+1 (DST+2)
Local Time:

Weather
METAR:FYWB 291700Z AUTO 18003KT //// // ////// 21/13 Q1017
TAF:FYWB 291600Z 2918/3024 23012KT CAVOK
BECMG 2919/2921 9999 BKN020
TEMPO 2921/3003 03003KT 0500 FG OVC005
BECMG 3004/3006 9999 OVC010
BECMG 3009/3011 20010KT CAVOK

Related Locations
Nearby:
Farthest:PHHF: 12352 mi / 19878 km
Tern Island [French Frigate Shoals Airport], HI, US

Find:

   beyond  
but within

Other Information
Maps:
NOTAMs:
Links:
Sources:

  
flag of Namibia   

Sectional Chart

Flight Planning
at skyvector.com

Satellite Image

Google Maps Satellite view

 

Copyright © 2004-2017 Karl L. Swartz. All rights reserved.
The Great Circle Mapper name and logo are trademarks of the Great Circle Mapper.
All other trademarks mentioned herein belong to their respective owners.
Please see credits for attibutions and further copyright information.

  Follow gcmap on Facebook Follow gcmap on Twitter Follow gcmap on Google+ GCmap on LinkedIn

hCard Microformat

Geo Microformat